Wind_Speed
61 61 59 61 66 67 66 67 68 65 66 67 66 59 58 63 71 72 71 68 67 65 62 61 56 56 58 56 53 53 57 56 55 55 46 41 42 42 41 39 39 37 31 29
63 62 67 70 71 68 73 73 70 68 70 69 67 63 56 56 61 74 72 73 73 71 68 64 63 62 60 55 53 58 61 60 57 55 43 41 44 41 41 39 37 37 29 26
68 70 66 68 70 71 72 75 74 73 74 71 69 67 60 56 58 60 73 70 72 71 68 68 65 61 58 58 63 65 63 59 56 52 42 41 42 41 39 36 36 31 28 25
41 40 46 49 54 62 72 70 76 77 76 74 71 70 63 58 57 56 55 66 72 70 67 64 57 55 57 63 64 62 58 52 47 41 40 38 41 38 35 37 32 30 26 26
20 20 26 32 34 40 54 62 70 70 79 77 73 73 67 64 59 54 55 53 62 69 61 58 55 56 57 56 56 55 45 37 36 37 32 36 36 34 35 33 29 28 26 26
17 25 26 27 27 21 29 35 43 42 49 64 74 73 66 61 57 51 47 45 47 56 61 60 55 52 49 50 50 44 37 33 30 28 31 33 33 34 33 30 27 25 26 27
23 18 25 21 26 25 21 26 31 41 47 52 70 62 65 59 58 52 46 39 40 45 48 50 48 45 46 44 40 36 28 24 24 29 32 33 31 30 27 25 24 24 25 26
22 17 15 11 15 23 19 21 32 37 42 49 46 43 64 59 48 47 46 39 38 39 42 45 44 43 41 34 31 26 24 25 27 29 30 27 27 25 22 22 23 23 24 25
20 18 16 16 19 26 20 24 25 32 31 42 37 53 64 60 48 30 31 42 37 39 40 40 37 37 30 30 28 26 26 29 26 27 26 25 23 19 21 22 22 23 25 24
15 18 16 17 20 12 29 24 24 31 33 27 38 38 59 58 47 35 27 30 37 37 40 36 34 30 27 27 26 27 28 25 26 26 23 22 18 19 21 21 21 23 23 25
12 15 11 19 15 12 12 23 21 24 34 21 28 30 31 50 58 51 44 31 31 35 34 32 31 28 29 27 27 25 24 24 24 22 21 18 18 19 20 20 22 21 23 21
17 13 14 16 15 9 17 16 22 28 28 33 25 24 35 35 48 50 47 45 36 33 24 30 29 31 29 28 25 24 24 23 21 19 17 18 18 18 18 21 20 21 20 19
17 18 14 9 12 15 12 16 21 20 31 35 32 24 26 33 51 40 47 47 44 35 28 34 34 33 31 26 25 23 23 21 18 17 16 16 17 17 19 18 20 21 21 20
16 14 16 14 18 15 16 17 16 21 28 28 35 37 22 27 41 50 40 49 44 37 33 33 33 33 29 24 23 20 19 18 19 18 14 14 17 17 17 18 19 19 19 20
13 12 13 15 15 20 17 18 20 22 22 28 32 34 41 45 46 53 43 45 46 40 33 31 33 31 27 24 18 16 18 20 21 19 15 15 16 16 16 17 18 17 18 18
10 4 5 11 14 16 14 16 19 19 20 23 24 39 49 44 46 43 53 43 46 50 38 32 32 28 24 22 16 17 19 19 20 18 15 15 14 15 15 16 16 16 17 17
8 7 5 6 12 14 11 15 19 19 20 24 28 31 43 42 44 49 48 51 48 51 43 42 33 27 26 22 16 18 17 17 18 16 15 14 14 13 14 15 16 16 17 11
19 16 19 16 13 13 14 10 13 17 21 24 26 34 42 49 46 48 50 51 53 46 49 42 34 29 29 23 16 16 16 18 17 15 14 13 12 12 14 14 15 14 10 10
16 12 13 14 10 10 12 7 6 11 13 24 26 35 43 56 47 49 55 56 50 51 48 41 37 33 29 23 17 17 18 19 17 15 13 12 11 12 12 12 14 12 10 10
11 10 10 9 9 12 11 15 17 15 10 14 24 35 47 57 52 47 61 56 54 50 45 44 39 34 31 24 17 19 20 19 16 15 12 12 11 10 11 12 10 8 8 10
16 12 12 12 11 12 15 12 14 5 9 9 15 31 48 60 55 51 57 56 53 51 47 43 38 34 29 23 20 20 20 19 15 14 11 11 9 9 11 5 5 6 6 7
15 14 12 13 12 12 18 17 14 12 9 10 9 26 44 53 63 51 57 56 55 52 47 42 38 33 28 24 23 21 20 19 16 13 11 10 8 8 9 6 4 6 7 7
13 16 19 19 16 19 19 17 16 16 12 11 9 17 37 52 66 59 58 60 57 51 45 42 37 32 30 25 24 22 21 19 17 13 11 9 8 9 7 3 1 5 7 8
19 19 23 23 26 23 20 19 17 14 14 10 21 22 36 51 56 63 61 60 57 49 44 41 36 33 30 27 25 23 22 18 16 12 11 9 9 9 5 3 2 5 8 9
19 20 22 26 22 26 23 17 7 7 10 14 27 28 35 48 50 59 64 60 57 52 45 42 37 34 31 27 25 23 21 19 17 12 12 10 9 8 6 4 2 5 8 10
18 20 21 27 24 26 28 17 9 6 14 14 24 37 39 45 49 54 66 63 58 54 46 42 39 38 32 28 27 26 22 20 17 14 13 11 10 9 7 3 1 4 7 11
Wind_Direction
263 257 255 254 251 254 251 249 247 243 244 245 246 242 241 241 231 235 232 229 235 237 239 242 248 254 260 266 271 274 277 277 276 280 287 293 292 291 292 292 295 294 296 289
270 265 268 263 257 248 246 246 246 246 244 244 246 242 240 241 238 232 235 236 233 238 240 243 246 254 259 263 268 272 273 272 273 277 283 285 284 289 291 291 294 298 292 289
282 276 272 267 261 254 247 242 243 243 242 241 243 242 238 238 240 239 236 236 239 240 241 244 248 254 260 258 265 270 269 270 270 272 277 277 284 287 291 294 295 292 288 288
282 274 265 256 251 248 243 238 233 235 236 241 242 242 240 238 239 239 238 234 235 239 244 248 250 254 258 259 262 264 268 270 267 269 272 278 282 286 289 291 292 283 284 289
272 274 279 265 260 248 245 234 229 231 230 234 236 241 235 237 236 239 241 245 240 236 239 241 245 251 253 256 257 262 266 263 265 265 273 277 282 285 286 290 281 282 283 288
279 283 276 284 268 267 245 240 229 229 233 230 233 237 237 237 240 239 243 246 241 233 236 241 244 247 249 251 256 260 261 259 258 267 271 275 282 284 284 279 276 278 282 287
276 292 282 291 267 253 258 230 225 228 217 225 225 231 233 237 236 237 239 241 234 229 232 233 239 243 246 251 255 257 250 249 259 262 266 276 281 278 278 272 274 278 283 290
276 290 300 306 291 248 256 232 224 228 231 232 223 224 224 230 233 240 235 229 229 229 229 231 234 236 242 247 247 248 245 246 252 257 268 276 274 270 266 272 275 279 286 289
283 280 290 290 308 241 242 230 229 225 218 229 233 233 221 226 222 227 232 227 223 223 224 224 226 231 236 241 241 238 239 246 251 261 268 266 264 260 268 272 274 280 285 287
277 284 286 297 298 265 237 219 221 217 228 224 218 226 220 223 207 198 202 209 213 221 223 223 225 228 230 225 224 228 238 245 255 262 254 255 252 258 266 271 274 282 286 289
289 279 275 291 303 256 252 215 226 207 217 220 214 224 226 217 219 209 209 196 198 208 218 218 220 219 218 217 221 228 238 249 248 243 246 248 251 260 267 268 279 281 287 290
278 293 281 278 290 284 232 223 222 210 208 206 194 212 230 217 215 216 210 208 217 215 206 202 207 210 213 218 221 231 241 238 237 237 237 242 253 262 263 273 276 285 285 289
279 276 286 281 299 292 267 225 232 221 199 203 206 195 206 215 210 205 208 209 214 214 203 197 200 207 212 215 224 232 238 235 229 224 234 245 256 258 265 273 281 287 284 286
274 278 268 258 238 264 262 265 246 219 220 208 207 205 214 190 203 212 207 203 204 202 196 190 193 202 205 211 218 225 228 227 222 220 234 247 255 257 270 274 283 288 289 287
301 288 275 239 249 258 267 261 254 246 237 227 210 220 213 199 199 204 196 195 199 193 180 189 195 202 203 203 211 220 224 227 221 224 237 247 245 265 267 278 288 288 287 290
331 299 250 237 255 259 267 258 263 257 250 245 240 219 204 196 203 200 203 192 195 189 193 195 194 196 204 199 208 217 226 225 220 227 238 236 255 262 269 282 286 287 288 294
304 270 240 226 251 275 282 251 248 252 245 243 240 221 199 186 186 202 201 199 198 198 203 204 204 202 204 198 215 220 228 225 217 226 232 240 256 258 272 282 288 291 294 287
327 345 348 339 316 318 317 288 261 257 242 244 233 213 197 186 185 194 195 193 197 194 197 202 202 203 197 202 212 232 227 218 219 228 227 248 250 259 272 285 291 294 282 274
338 336 357 7 2 358 18 360 288 238 248 249 232 209 194 188 185 188 187 188 190 193 194 197 200 196 195 203 215 222 217 216 221 221 228 247 247 260 276 286 298 303 287 267
359 357 351 357 17 22 3 353 333 316 230 246 228 210 194 188 183 186 186 178 183 187 191 192 190 189 198 206 208 218 215 219 220 216 231 237 246 262 280 290 293 299 277 267
338 338 342 336 339 346 327 325 334 356 215 221 237 220 194 186 176 190 175 179 184 187 188 187 186 192 200 204 209 218 221 220 217 218 231 233 244 269 274 266 281 301 300 290
328 328 319 326 322 298 313 320 313 301 269 219 232 221 201 187 186 187 182 182 186 188 190 192 191 197 202 205 209 218 224 221 216 221 227 233 251 264 250 264 297 329 339 323
331 334 333 331 318 319 318 317 312 282 244 236 230 206 201 185 190 187 181 184 189 189 193 193 196 203 205 211 212 218 221 216 211 219 221 231 249 255 247 259 38 6 10 358
349 344 339 334 329 328 327 322 319 285 254 232 193 182 194 185 189 184 184 186 189 191 194 196 201 203 206 210 213 216 218 210 209 216 218 226 244 243 224 172 52 359 356 351
342 340 339 335 333 325 325 349 341 281 196 195 183 170 181 186 183 183 185 190 194 194 195 199 204 204 209 211 209 210 211 205 207 208 214 221 232 216 184 139 37 356 350 346
332 339 336 332 332 333 334 27 21 193 173 175 176 163 172 178 176 180 186 191 197 198 199 202 203 204 208 208 203 209 208 203 202 202 208 214 213 189 166 136 38 12 5 1
Height
5690 5696 5701 5691 5691 5701 5702 5702 5709 5720 5721 5720 5722 5737 5748 5754 5763 5764 5773 5780 5783 5787 5794 5796 5802 5805 5807 5809 5810 5811 5810 5808 5806 5805 5807 5806 5803 5801 5799 5797 5795 5793 5790 5787
5669 5677 5671 5667 5671 5679 5681 5685 5692 5699 5703 5708 5712 5721 5733 5737 5745 5754 5761 5766 5773 5778 5784 5790 5794 5797 5800 5801 5801 5801 5799 5799 5799 5798 5801 5800 5797 5795 5793 5791 5790 5787 5784 5781
5646 5651 5638 5642 5646 5653 5658 5666 5677 5679 5684 5690 5698 5704 5716 5724 5732 5740 5746 5758 5762 5767 5775 5781 5785 5790 5791 5791 5791 5789 5788 5790 5792 5792 5794 5792 5791 5789 5787 5785 5784 5781 5778 5776
5628 5623 5619 5619 5621 5627 5633 5647 5652 5658 5665 5676 5683 5690 5703 5711 5717 5727 5736 5741 5748 5756 5763 5770 5775 5778 5781 5781 5780 5779 5781 5782 5784 5786 5786 5785 5784 5783 5780 5779 5778 5775 5773 5770
5620 5614 5609 5609 5612 5612 5614 5624 5629 5636 5645 5656 5669 5674 5692 5696 5706 5717 5724 5732 5736 5747 5752 5757 5763 5767 5770 5770 5769 5770 5774 5775 5777 5778 5778 5779 5777 5776 5774 5773 5771 5769 5767 5764
5611 5607 5605 5604 5602 5602 5606 5610 5617 5624 5631 5631 5660 5662 5678 5689 5697 5707 5714 5719 5722 5729 5739 5745 5753 5756 5759 5758 5760 5764 5766 5768 5770 5771 5772 5772 5771 5770 5768 5767 5765 5763 5761 5758
5606 5602 5600 5596 5593 5596 5599 5603 5608 5613 5614 5618 5644 5646 5668 5676 5685 5694 5702 5707 5712 5719 5728 5735 5740 5745 5747 5750 5754 5757 5760 5762 5764 5765 5766 5765 5765 5763 5762 5760 5759 5757 5755 5753
5599 5599 5594 5591 5588 5590 5593 5597 5601 5605 5611 5618 5629 5630 5661 5666 5677 5685 5692 5698 5704 5710 5717 5724 5731 5735 5739 5743 5747 5751 5753 5756 5757 5759 5759 5759 5758 5757 5756 5755 5754 5752 5750 5748
5593 5592 5589 5587 5585 5584 5587 5590 5595 5599 5605 5617 5625 5628 5648 5655 5669 5677 5683 5690 5696 5703 5708 5715 5722 5727 5733 5737 5740 5744 5747 5749 5751 5752 5753 5752 5752 5751 5751 5750 5749 5747 5745 5743
5590 5587 5584 5583 5581 5579 5580 5586 5588 5593 5597 5605 5617 5624 5635 5645 5662 5669 5676 5681 5688 5695 5701 5709 5716 5722 5727 5729 5733 5737 5741 5743 5745 5746 5747 5746 5746 5746 5746 5745 5744 5742 5740 5738
5585 5583 5583 5579 5578 5576 5577 5580 5584 5587 5596 5601 5614 5622 5626 5634 5648 5660 5669 5675 5681 5687 5694 5703 5709 5715 5719 5724 5728 5732 5735 5737 5738 5740 5740 5741 5742 5741 5741 5740 5739 5737 5735 5732
5581 5579 5577 5576 5575 5576 5575 5576 5579 5581 5590 5595 5604 5620 5619 5627 5639 5651 5661 5667 5674 5680 5688 5696 5702 5707 5713 5718 5723 5727 5729 5731 5733 5734 5734 5736 5736 5736 5736 5736 5734 5731 5729 5727
5576 5575 5574 5575 5575 5572 5572 5574 5575 5579 5581 5587 5597 5607 5610 5617 5631 5642 5652 5659 5667 5675 5682 5690 5696 5702 5708 5714 5718 5721 5724 5725 5727 5728 5730 5731 5731 5732 5732 5730 5728 5726 5725 5723
5570 5570 5569 5570 5568 5566 5568 5569 5571 5573 5576 5583 5589 5598 5605 5611 5621 5632 5641 5650 5660 5669 5678 5684 5690 5697 5704 5708 5712 5716 5718 5720 5722 5723 5724 5726 5727 5728 5726 5725 5724 5722 5720 5718
5564 5564 5563 5565 5565 5565 5564 5564 5565 5566 5569 5571 5579 5586 5592 5596 5607 5621 5635 5643 5654 5663 5672 5679 5686 5693 5699 5703 5708 5711 5713 5715 5717 5719 5720 5722 5723 5723 5722 5721 5719 5717 5715 5713
5564 5562 5560 5560 5559 5559 5559 5560 5560 5560 5561 5562 5565 5570 5579 5590 5604 5617 5626 5638 5648 5657 5666 5675 5681 5688 5694 5699 5703 5706 5709 5711 5713 5715 5717 5718 5718 5718 5718 5717 5715 5713 5711 5709
5563 5560 5557 5556 5554 5553 5554 5553 5553 5554 5555 5555 5555 5563 5573 5586 5596 5609 5619 5630 5642 5652 5662 5670 5677 5684 5689 5695 5699 5703 5705 5707 5709 5712 5713 5714 5714 5715 5714 5713 5711 5709 5707 5705
5563 5559 5556 5553 5551 5550 5549 5547 5547 5546 5545 5547 5550 5558 5569 5581 5590 5601 5610 5623 5635 5646 5656 5665 5673 5680 5685 5691 5696 5700 5702 5704 5706 5708 5710 5711 5711 5711 5711 5709 5707 5705 5703 5702
5563 5559 5555 5552 5549 5548 5546 5544 5541 5540 5543 5540 5542 5552 5564 5573 5586 5597 5605 5615 5628 5639 5650 5660 5668 5675 5682 5688 5692 5695 5698 5700 5702 5705 5706 5708 5708 5708 5707 5706 5704 5701 5701 5700
5562 5558 5555 5551 5549 5547 5545 5541 5538 5535 5536 5538 5541 5547 5559 5568 5581 5591 5597 5614 5625 5635 5646 5655 5663 5672 5679 5684 5688 5692 5694 5697 5700 5702 5704 5704 5705 5705 5704 5703 5700 5699 5698 5697
5561 5557 5554 5551 5548 5546 5543 5539 5537 5535 5537 5535 5537 5543 5554 5565 5578 5585 5603 5611 5622 5632 5642 5651 5660 5668 5675 5681 5685 5689 5692 5695 5698 5700 5701 5702 5702 5701 5701 5700 5698 5697 5695 5693
5560 5556 5553 5550 5547 5545 5540 5538 5535 5534 5532 5533 5534 5538 5550 5563 5575 5585 5598 5609 5619 5629 5639 5649 5658 5665 5672 5677 5681 5686 5690 5693 5695 5698 5699 5699 5699 5699 5699 5698 5696 5694 5693 5691
5560 5555 5551 5548 5544 5541 5536 5533 5531 5528 5529 5530 5532 5534 5546 5560 5569 5585 5597 5606 5616 5627 5637 5647 5654 5662 5669 5674 5679 5684 5687 5690 5693 5695 5696 5696 5697 5697 5697 5696 5695 5693 5691 5689
5558 5554 5550 5546 5541 5536 5532 5529 5525 5523 5523 5525 5529 5533 5544 5557 5566 5583 5594 5603 5615 5626 5636 5644 5651 5658 5665 5670 5676 5681 5685 5688 5691 5693 5694 5694 5695 5696 5696 5695 5694 5693 5691 5689
5558 5554 5549 5542 5539 5533 5528 5525 5520 5519 5519 5522 5526 5532 5542 5554 5567 5580 5592 5602 5613 5624 5634 5642 5649 5655 5661 5668 5674 5679 5683 5685 5688 5690 5692 5693 5694 5695 5695 5695 5694 5693 5691 5689
5556 5552 5547 5539 5536 5530 5524 5520 5517 5517 5518 5521 5526 5533 5542 5554 5567 5578 5589 5601 5611 5622 5631 5638 5645 5651 5658 5666 5671 5676 5679 5682 5686 5688 5690 5692 5693 5694 5695 5695 5695 5693 5691 5689